Location: Indian Springs
(36.5700°N, 115.6700°W)
Time: 06:17:28
(UTC-08:00)

Amateur Radio Satellites - All Passes

Search period start: 22 December 2014 05:47
Search period end: 23 December 2014 05:47
Location: Indian Springs, 36.5700°N, 115.6700°W

Satellite Date Start Highest point End Downlink Frequencies (MHz)
Time Altitude Azimuth
GONETS M04 22 Dec 05:50:24 05:58:59 55° 281° (WNW) 06:07:38
JAS-2 22 Dec 05:55:29 05:59:59 26° 294° (WNW) 06:04:15 435.910
VERMONT LUNAR 22 Dec 05:55:42 05:59:13 69° 16° (NNE) 06:02:43 437.305
SO-50 22 Dec 06:09:36 06:13:56 32° 247° (WSW) 06:18:15 436.795
STRAND 1 22 Dec 06:10:02 06:15:04 59° 259° (W) 06:20:07 437.568
PHONESAT 2.4 22 Dec 06:17:57 06:21:34 67° 16° (NNE) 06:25:10 2401.200-2431.200
Cubesat XI-IV 22 Dec 06:39:09 06:44:13 47° 289° (WNW) 06:49:17 437.490
CUBESAT XI-V 22 Dec 06:57:59 07:00:42 15° 268° (W) 07:03:24 437.345
HO-68 22 Dec 07:12:34 07:16:25 15° 91° (E) 07:20:15 435.675
CUTE-I 22 Dec 07:12:37 07:16:46 24° 294° (WNW) 07:20:56 437.470
VERMONT LUNAR 22 Dec 07:34:17 07:37:21 28° 211° (SSW) 07:40:25 437.305
MaSat-1 22 Dec 07:40:44 07:43:02 67° 113° (ESE) 07:45:14 437.345
PHONESAT 2.4 22 Dec 07:56:52 08:00:06 31° 211° (SSW) 08:03:20 2401.200-2431.200
AAUSAT CUBESAT 2 22 Dec 07:57:50 08:00:23 16° 93° (E) 08:02:54 437.432
CUSAT 1 22 Dec 08:04:16 08:06:50 18° 83° (E) 08:09:52 437.405
BRITE-PL 22 Dec 08:10:22 08:15:01 45° 99° (E) 08:20:00 437.365/2234.400
CANX-2 22 Dec 08:16:48 08:20:59 47° 99° (E) 08:25:07 2200.000
GOMX 1 22 Dec 08:27:33 08:32:17 49° 100° (E) 08:37:19 467.674
CUBEBUG 2 22 Dec 08:29:02 08:30:55 12° 91° (E) 08:32:47 437.445
COMPASS 1 22 Dec 08:33:15 08:37:23 47° 99° (E) 08:41:27 437.405
DELFI C3 22 Dec 08:39:17 08:42:09 18° 94° (E) 08:45:00 145.870
SEEDS 22 Dec 08:41:18 08:45:36 74° 101° (ESE) 08:49:50 437.485
ANTELSAT 22 Dec 08:42:36 08:45:48 20° 67° (ENE) 08:49:03 437.575/2403.000
RS-15 22 Dec 08:43:41 08:45:43 11° 96° (E) 08:47:44 29.354- 29.394
DOVE 4 22 Dec 08:44:16 08:49:03 54° 100° (E) 08:54:04 437.250
CUTE 1.7 + AOD 2 22 Dec 08:47:15 08:51:35 80° 283° (WNW) 08:55:52 437.475
CINEMA 3 22 Dec 08:55:57 09:00:32 42° 99° (E) 09:05:13 145.822/145.860
FUNcube-1 22 Dec 08:56:36 08:59:37 17° 93° (E) 09:02:38 145.935
POPSAT HIP 1 22 Dec 08:56:40 08:59:26 17° 67° (ENE) 09:02:12 437.405
HO-68 22 Dec 08:57:39 09:04:49 83° 287° (WNW) 09:11:57 435.675
O/OREOS (USA 219) 22 Dec 08:57:45 09:01:07 20° 60° (ENE) 09:04:28 437.305
UWE-3 22 Dec 09:01:35 09:05:22 24° 95° (E) 09:09:09 435.000/436.395/437.385
DANDE 22 Dec 09:03:54 09:07:18 78° 97° (E) 09:11:54 436.750
DX 1 22 Dec 09:11:09 09:15:13 38° 99° (E) 09:19:17 434.975-435.025
BUGSAT 1 22 Dec 09:13:04 09:16:06 20° 69° (ENE) 09:19:07 437.445
TIGRISAT 22 Dec 09:15:46 09:19:54 45° 73° (ENE) 09:24:09 435.000
HUMSAT D 22 Dec 09:16:53 09:19:33 16° 93° (E) 09:22:12 437.325/437.525
DUCHIFAT 1 22 Dec 09:22:29 09:26:16 33° 72° (ENE) 09:30:03 145.980
AISAT 22 Dec 09:23:06 09:26:03 17° 94° (E) 09:28:59 437.250
Oscar 11 22 Dec 09:30:07 09:34:30 87° 283° (WNW) 09:38:51 145.826/435.025
AAUSAT CUBESAT 2 22 Dec 09:32:15 09:36:10 37° 287° (WNW) 09:40:02 437.432
QB50P2 22 Dec 09:37:08 09:41:13 52° 74° (ENE) 09:45:20 145.880/145.840
UKube-1 22 Dec 09:39:54 09:44:15 84° 103° (ESE) 09:48:35 .
UNISAT 6 22 Dec 09:45:44 09:50:05 78° 258° (WSW) 09:54:35 437.425
CUSAT 1 22 Dec 09:46:20 09:49:31 25° 291° (WNW) 09:53:32 437.405
POLYITAN 1 22 Dec 09:46:34 09:50:45 69° 76° (ENE) 09:54:57 437.675
NANOSAT C BR1 22 Dec 09:47:03 09:51:13 69° 76° (ENE) 09:55:24 145.865
BRITE-PL 22 Dec 09:49:57 09:53:14 19° 292° (WNW) 09:56:40 437.365/2234.400
CANX-2 22 Dec 09:54:20 09:56:28 14° 294° (WNW) 09:58:35 2200.000
QB50P1 22 Dec 10:01:47 10:05:59 78° 258° (WSW) 10:10:13 145.935-145.965
CUBEBUG 2 22 Dec 10:03:17 10:07:53 59° 285° (WNW) 10:12:34 437.445
ZACube-1 22 Dec 10:05:25 10:09:59 78° 284° (WNW) 10:14:35 437.345
GOMX 1 22 Dec 10:06:54 10:10:03 18° 292° (WNW) 10:13:20 467.674
YUBILEINY 22 Dec 10:08:15 10:16:48 57° 79° (E) 10:25:17 435.215
COMPASS 1 22 Dec 10:10:39 10:12:39 13° 294° (WNW) 10:14:38 437.405
50 SAT 22 Dec 10:13:41 10:17:47 58° 100° (E) 10:21:53 437.505
DELFI C3 22 Dec 10:13:50 10:17:26 30° 289° (WNW) 10:21:00 145.870
VELOX 1 22 Dec 10:14:03 10:18:27 66° 102° (ESE) 10:22:51 145.980
ANTELSAT 22 Dec 10:18:26 10:22:20 32° 263° (W) 10:26:22 437.575/2403.000
DOVE 4 22 Dec 10:23:30 10:26:24 16° 293° (WNW) 10:29:23 437.250
ESTCUBE 1 22 Dec 10:23:59 10:28:01 32° 97° (E) 10:32:01 437.505/2401.250
POPSAT HIP 1 22 Dec 10:31:13 10:35:02 34° 262° (W) 10:38:53 437.405
FUNcube-1 22 Dec 10:31:49 10:36:04 40° 287° (WNW) 10:40:20 145.935
CINEMA 3 22 Dec 10:34:02 10:37:25 19° 292° (WNW) 10:40:52 145.822/145.860
O/OREOS (USA 219) 22 Dec 10:36:29 10:40:35 34° 256° (WSW) 10:44:41 437.305
UWE-3 22 Dec 10:37:50 10:41:50 29° 289° (WNW) 10:45:52 435.000/436.395/437.385
RS-15 22 Dec 10:45:02 10:55:51 68° 114° (ESE) 11:06:38 29.354- 29.394
HO-68 22 Dec 10:47:55 10:51:26 14° 305° (NW) 10:54:56 435.675
BUGSAT 1 22 Dec 10:47:58 10:51:26 26° 263° (W) 10:54:53 437.445
DX 1 22 Dec 10:48:23 10:51:08 17° 294° (WNW) 10:53:53 434.975-435.025
HUMSAT D 22 Dec 10:51:25 10:55:27 39° 287° (WNW) 10:59:30 437.325/437.525
TIGRISAT 22 Dec 10:54:43 10:56:54 14° 268° (W) 10:59:06 435.000
CUBEBUG 1 22 Dec 10:57:05 11:01:26 75° 102° (ESE) 11:05:46 437.445
AISAT 22 Dec 10:58:41 11:02:45 37° 288° (WNW) 11:06:50 437.250
DUCHIFAT 1 22 Dec 10:59:28 11:02:11 17° 266° (W) 11:04:56 145.980
Oscar 19 22 Dec 11:09:52 11:12:36 15° 63° (ENE) 11:15:19 437.125/150
QB50P2 22 Dec 11:16:21 11:17:25 11° 268° (W) 11:18:28 145.880/145.840
BEESAT 2 22 Dec 11:28:16 11:31:27 22° 111° (ESE) 11:34:41 435.950
JUGNU 22 Dec 11:29:44 11:32:54 15° 175° (S) 11:36:04 437.505
TISAT 1 22 Dec 11:47:05 11:51:18 65° 101° (ESE) 11:55:30 437.305
50 SAT 22 Dec 11:51:36 11:52:28 11° 295° (WNW) 11:53:19 437.505
VELOX 1 22 Dec 11:53:32 11:54:27 11° 297° (WNW) 11:55:21 145.980
SWISSCUBE 22 Dec 11:55:07 11:56:21 11° 91° (E) 11:57:35 437.505
SPROUT 22 Dec 11:57:00 12:01:19 81° 102° (ESE) 12:05:38 437.525
ESTCUBE 1 22 Dec 12:01:20 12:04:39 21° 292° (WNW) 12:07:58 437.505/2401.250
YUBILEINY 22 Dec 12:06:04 12:12:58 28° 277° (W) 12:19:53 435.215
BEESAT 22 Dec 12:17:48 12:21:10 19° 94° (E) 12:24:31 436.000
ISS 22 Dec 12:17:49 12:21:07 80° 319° (NW) 12:24:26 145.825
BEESAT 3 22 Dec 12:23:28 12:27:33 73° 301° (WNW) 12:31:42 437.485
SRMSAT 22 Dec 12:37:21 12:40:16 14° 173° (S) 12:43:10 437.500
AIST 2 22 Dec 12:42:06 12:46:17 69° 117° (ESE) 12:50:33 435.215
Oscar 19 22 Dec 12:46:16 12:51:21 63° 259° (WSW) 12:56:29 437.125/150
AO-7 22 Dec 12:50:30 12:53:18 12° 48° (NE) 12:56:06 29.400- 29.500
PCSat 22 Dec 12:50:33 12:55:58 87° 117° (ESE) 13:01:25 145.827
RS-15 22 Dec 12:59:16 13:08:56 35° 317° (NW) 13:18:44 29.354- 29.394
BEESAT 2 22 Dec 13:05:55 13:09:32 29° 307° (NW) 13:13:12 435.950
ITAMSAT 1 22 Dec 13:06:33 13:11:42 74° 75° (ENE) 13:16:53 435.822/435.867
Gurwin Techsat 1B 22 Dec 13:13:53 13:19:00 52° 72° (ENE) 13:24:09 435.225
HORYU 2 22 Dec 13:16:22 13:19:23 18° 67° (ENE) 13:22:25 437.375
JUGNU 22 Dec 13:18:02 13:21:08 14° 186° (S) 13:24:13 437.505
SWISSCUBE 22 Dec 13:29:53 13:34:36 65° 286° (WNW) 13:39:17 437.505
ITUPSAT 1 22 Dec 13:31:13 13:35:58 70° 285° (WNW) 13:40:41 437.325
AUBIESAT-1 22 Dec 13:37:38 13:41:32 38° 102° (ESE) 13:45:06 437.475
BEESAT 22 Dec 13:54:42 13:59:07 38° 289° (WNW) 14:03:29 436.000
ISS 22 Dec 13:56:30 13:58:09 13° 336° (NNW) 13:59:48 145.825
M-CUBED/EXP-1 PRIME 22 Dec 14:04:39 14:08:55 84° 288° (WNW) 14:12:46 437.505
GONETS M04 22 Dec 14:11:29 14:13:41 11° 60° (ENE) 14:15:53
STARS 22 Dec 14:15:23 14:19:40 46° 100° (E) 14:23:57 437.465
JAS-2 22 Dec 14:20:43 14:24:48 16° 61° (ENE) 14:28:42 435.910
AIST 2 22 Dec 14:23:26 14:25:22 13° 315° (NW) 14:27:19 435.215
KKS-1 22 Dec 14:23:36 14:28:06 90° 103° (ESE) 14:32:35 437.445
SRMSAT 22 Dec 14:25:25 14:28:38 15° 183° (S) 14:31:52 437.500
AO-7 22 Dec 14:36:15 14:44:22 62° 68° (ENE) 14:52:34 29.400- 29.500
PCSat 22 Dec 14:37:20 14:40:06 14° 314° (NW) 14:42:52 145.827
ITAMSAT 1 22 Dec 14:50:18 14:51:40 11° 269° (W) 14:53:02 435.822/435.867
HORYU 2 22 Dec 14:51:36 14:55:44 37° 262° (W) 14:59:55 437.375
Gurwin Techsat 1B 22 Dec 14:55:51 14:59:14 17° 267° (W) 15:02:38 435.225
AUBIESAT-1 22 Dec 15:13:35 15:16:05 16° 300° (WNW) 15:18:28 437.475
RS-15 22 Dec 15:20:55 15:26:12 14° 351° (N) 15:31:33 29.354- 29.394
AIST 1 22 Dec 15:32:24 15:36:40 55° 94° (E) 15:40:56
MOZHAYETS 4 22 Dec 15:49:11 15:52:46 22° 95° (E) 15:56:18
STARS 22 Dec 15:53:15 15:55:44 15° 294° (WNW) 15:58:13 437.465
JAS-2 22 Dec 16:01:20 16:09:03 88° 76° (ENE) 16:16:04 435.910
GONETS M04 22 Dec 16:03:32 16:12:17 68° 81° (E) 16:20:54
Cubesat XI-IV 22 Dec 16:19:51 16:24:10 26° 67° (ENE) 16:28:29 437.490
AO-7 22 Dec 16:30:53 16:37:32 26° 264° (W) 16:44:16 29.400- 29.500
CUTE-I 22 Dec 16:51:29 16:56:36 50° 72° (ENE) 17:01:44 437.470
MaSat-1 22 Dec 17:12:18 17:14:36 36° 65° (ENE) 17:17:01 437.345
AIST 1 22 Dec 17:13:32 17:14:40 11° 289° (WNW) 17:15:47
CUBESAT XI-V 22 Dec 17:19:36 17:21:56 14° 92° (E) 17:24:14 437.345
PRISM 22 Dec 17:20:11 17:23:44 27° 97° (E) 17:27:15 437.425
MOZHAYETS 4 22 Dec 17:25:55 17:29:58 31° 289° (WNW) 17:34:00
RS-15 22 Dec 17:37:13 17:45:04 21° 28° (NNE) 17:53:04 29.354- 29.394
JAS-2 22 Dec 17:50:27 17:54:32 15° 269° (W) 17:58:28 435.910
Cubesat XI-IV 22 Dec 17:59:12 18:04:03 36° 262° (W) 18:08:55 437.490
GONETS M04 22 Dec 18:01:59 18:08:11 22° 279° (W) 18:14:23
DANDE 22 Dec 18:05:27 18:08:56 13° 64° (ENE) 18:12:31 436.750
STRAND 1 22 Dec 18:23:02 18:28:03 57° 101° (E) 18:33:03 437.568
CUTE-I 22 Dec 18:33:26 18:36:54 18° 267° (W) 18:40:24 437.470
CUSAT 1 22 Dec 18:43:00 18:49:49 29° 71° (ENE) 18:56:56 437.405
SO-50 22 Dec 18:43:32 18:45:54 14° 108° (ESE) 18:48:19 436.795
ISS 22 Dec 18:48:12 18:51:19 40° 36° (NE) 18:54:25 145.825
CUBESAT XI-V 22 Dec 18:55:11 18:59:37 49° 286° (WNW) 19:04:02 437.345
PRISM 22 Dec 18:56:00 18:59:05 21° 292° (WNW) 19:02:09 437.425
CANX-2 22 Dec 19:08:02 19:11:33 26° 70° (ENE) 19:15:06 2200.000
BRITE-PL 22 Dec 19:20:06 19:23:52 34° 72° (ENE) 19:27:38 437.365/2234.400
HO-68 22 Dec 19:23:02 19:30:02 59° 70° (ENE) 19:37:03 435.675
COMPASS 1 22 Dec 19:23:04 19:26:29 25° 70° (ENE) 19:29:57 437.405
SEEDS 22 Dec 19:31:23 19:35:17 37° 72° (ENE) 19:39:13 437.485
GOMX 1 22 Dec 19:34:31 19:38:16 34° 72° (ENE) 19:42:04 467.674
CUTE 1.7 + AOD 2 22 Dec 19:37:47 19:41:55 52° 74° (ENE) 19:46:06 437.475
DANDE 22 Dec 19:45:28 19:53:30 68° 80° (E) 20:02:09 436.750
DOVE 4 22 Dec 19:48:39 19:52:27 36° 72° (ENE) 19:56:18 437.250
RS-15 22 Dec 19:48:59 20:00:14 64° 56° (NE) 20:11:56 29.354- 29.394
CINEMA 3 22 Dec 19:56:32 19:59:59 26° 70° (ENE) 20:03:31 145.822/145.860
UWE-3 22 Dec 19:58:19 20:00:30 14° 66° (ENE) 20:02:43 435.000/436.395/437.385
STRAND 1 22 Dec 20:03:46 20:06:44 16° 296° (WNW) 20:09:42 437.568
DX 1 22 Dec 20:04:58 20:08:32 26° 69° (ENE) 20:12:06 434.975-435.025
AISAT 22 Dec 20:20:30 20:22:21 13° 64° (ENE) 20:24:13 437.250
AAUSAT CUBESAT 2 22 Dec 20:20:35 20:24:46 77° 258° (WSW) 20:29:01 437.432
SO-50 22 Dec 20:21:31 20:25:55 53° 304° (WNW) 20:30:29 436.795
Oscar 11 22 Dec 20:22:26 20:26:38 52° 74° (ENE) 20:30:52 145.826/435.025
CUSAT 1 22 Dec 20:25:16 20:33:13 62° 266° (W) 20:41:30 437.405
ISS 22 Dec 20:25:30 20:27:39 17° 231° (SW) 20:29:47 145.825
UKube-1 22 Dec 20:32:36 20:36:47 51° 73° (ENE) 20:41:00 .
CANX-2 22 Dec 20:43:59 20:47:24 23° 265° (W) 20:50:51 2200.000
BEESAT 3 22 Dec 20:45:44 20:49:29 31° 54° (NE) 20:53:11 437.485
COMPASS 1 22 Dec 20:58:42 21:02:07 24° 265° (W) 21:05:33 437.405
DELFI C3 22 Dec 20:59:18 21:03:22 66° 259° (W) 21:07:29 145.870
ZACube-1 22 Dec 20:59:20 21:03:26 60° 75° (ENE) 21:07:39 437.345
CUBEBUG 2 22 Dec 20:59:27 21:03:37 87° 77° (ENE) 21:07:55 437.445
50 SAT 22 Dec 21:00:06 21:03:27 26° 71° (ENE) 21:06:49 437.505
BRITE-PL 22 Dec 21:00:07 21:02:32 15° 267° (W) 21:04:57 437.365/2234.400
AIST 2 22 Dec 21:06:57 21:10:24 23° 51° (NE) 21:13:49 435.215
SEEDS 22 Dec 21:08:37 21:11:13 16° 267° (W) 21:13:51 437.485
VELOX 1 22 Dec 21:09:39 21:13:50 43° 73° (ENE) 21:18:01 145.980
TIGRISAT 22 Dec 21:11:53 21:13:58 13° 91° (E) 21:16:02 435.000
HO-68 22 Dec 21:12:34 21:18:04 24° 265° (W) 21:23:36 435.675
GOMX 1 22 Dec 21:14:09 21:16:33 15° 267° (W) 21:18:58 467.674
CUTE 1.7 + AOD 2 22 Dec 21:16:49 21:18:08 11° 269° (W) 21:19:27 437.475
YUBILEINY 22 Dec 21:18:01 21:19:08 10° 75° (ENE) 21:20:14 435.215
ESTCUBE 1 22 Dec 21:21:53 21:25:28 24° 69° (ENE) 21:29:04 437.505/2401.250
FUNcube-1 22 Dec 21:25:17 21:29:25 66° 259° (W) 21:33:40 145.935
BEESAT 2 22 Dec 21:27:38 21:31:50 81° 60° (ENE) 21:35:57 435.950
QB50P2 22 Dec 21:28:05 21:28:54 11° 91° (E) 21:29:44 145.880/145.840
DOVE 4 22 Dec 21:28:06 21:30:24 15° 267° (W) 21:32:43 437.250
DANDE 22 Dec 21:30:04 21:36:28 26° 274° (W) 21:43:12 436.750
UWE-3 22 Dec 21:32:39 21:36:37 43° 261° (W) 21:40:43 435.000/436.395/437.385
CINEMA 3 22 Dec 21:33:58 21:37:10 21° 265° (W) 21:40:26 145.822/145.860
POLYITAN 1 22 Dec 21:36:29 21:38:45 14° 93° (E) 21:41:01 437.675
NANOSAT C BR1 22 Dec 21:36:33 21:38:42 14° 93° (E) 21:40:51 145.865
UNISAT 6 22 Dec 21:40:43 21:44:46 28° 96° (E) 21:48:47 437.425
HUMSAT D 22 Dec 21:40:56 21:45:03 75° 258° (WSW) 21:49:15 437.325/437.525
PCSat 22 Dec 21:41:08 21:46:16 41° 57° (ENE) 21:51:20 145.827
DX 1 22 Dec 21:41:09 21:44:41 24° 264° (W) 21:48:13 434.975-435.025
QB50P1 22 Dec 21:50:31 21:53:42 20° 95° (E) 21:56:53 145.935-145.965
CUBEBUG 1 22 Dec 21:51:04 21:55:14 45° 73° (ENE) 21:59:23 437.445
AISAT 22 Dec 21:54:09 21:58:28 55° 259° (W) 22:02:49 437.250
Oscar 11 22 Dec 22:01:37 22:03:05 12° 269° (W) 22:04:33 145.826/435.025
RS-15 22 Dec 22:02:12 22:11:56 34° 254° (WSW) 22:22:03 29.354- 29.394
UKube-1 22 Dec 22:11:39 22:13:12 12° 268° (W) 22:14:46 .
ANTELSAT 22 Dec 22:12:25 22:17:07 63° 101° (E) 22:21:47 437.575/2403.000
CUSAT 1 22 Dec 22:14:36 22:14:57 10° 281° (W) 22:15:18 437.405
POPSAT HIP 1 22 Dec 22:18:49 22:22:55 43° 99° (E) 22:27:00 437.405
BEESAT 3 22 Dec 22:24:22 22:27:26 20° 250° (WSW) 22:30:29 437.485
BUGSAT 1 22 Dec 22:32:14 22:36:11 49° 100° (E) 22:40:09 437.445
50 SAT 22 Dec 22:35:38 22:38:36 20° 265° (W) 22:41:37 437.505
TISAT 1 22 Dec 22:37:34 22:41:22 35° 72° (ENE) 22:45:11 437.305
AIST 2 22 Dec 22:45:15 22:49:02 31° 247° (WSW) 22:52:45 435.215
DUCHIFAT 1 22 Dec 22:45:22 22:49:38 88° 283° (WNW) 22:53:55 145.980
TIGRISAT 22 Dec 22:46:22 22:51:00 57° 286° (WNW) 22:55:36 435.000
VELOX 1 22 Dec 22:48:09 22:50:35 15° 267° (W) 22:53:01 145.980
SPROUT 22 Dec 22:48:59 22:53:02 44° 73° (ENE) 22:57:06 437.525
ESTCUBE 1 22 Dec 22:58:15 23:02:11 29° 263° (W) 23:06:07 437.505/2401.250
SWISSCUBE 22 Dec 23:00:23 23:01:33 11° 62° (ENE) 23:02:44 437.505
QB50P2 22 Dec 23:00:55 23:05:07 56° 286° (WNW) 23:09:18 145.880/145.840
ITUPSAT 1 22 Dec 23:02:41 23:03:08 10° 62° (ENE) 23:03:35 437.325
YUBILEINY 22 Dec 23:05:34 23:14:14 71° 93° (E) 23:22:53 435.215
O/OREOS (USA 219) 22 Dec 23:07:06 23:11:07 34° 104° (ESE) 23:15:08 437.305
NANOSAT C BR1 22 Dec 23:10:43 23:14:45 43° 287° (WNW) 23:18:48 145.865
POLYITAN 1 22 Dec 23:10:48 23:14:52 43° 287° (WNW) 23:18:56 437.675
UNISAT 6 22 Dec 23:17:30 23:21:25 27° 291° (WNW) 23:25:21 437.425
M-CUBED/EXP-1 PRIME 22 Dec 23:20:27 23:21:11 10° 57° (ENE) 23:21:54 437.505
BEESAT 22 Dec 23:22:37 23:25:47 18° 66° (ENE) 23:28:57 436.000
PCSat 22 Dec 23:25:07 23:29:23 24° 253° (WSW) 23:33:38 145.827
QB50P1 22 Dec 23:25:53 23:29:35 29° 289° (WNW) 23:33:16 145.935-145.965
CUBEBUG 1 22 Dec 23:29:38 23:31:48 14° 267° (W) 23:33:58 437.445
ANTELSAT 22 Dec 23:51:16 23:53:20 13° 296° (WNW) 23:55:23 437.575/2403.000
POPSAT HIP 1 22 Dec 23:56:06 23:58:25 14° 294° (WNW) 00:00:44 437.405
BUGSAT 1 23 Dec 00:09:44 00:11:14 12° 294° (WNW) 00:12:43 437.445
TISAT 1 23 Dec 00:14:38 00:17:17 16° 266° (W) 00:19:56 437.305
VERMONT LUNAR 23 Dec 00:21:39 00:24:21 21° 146° (SE) 00:27:03 437.305
AUBIESAT-1 23 Dec 00:23:18 00:27:49 41° 67° (ENE) 00:32:24 437.475
SPROUT 23 Dec 00:27:14 00:29:19 13° 268° (W) 00:31:24 437.525
SWISSCUBE 23 Dec 00:33:57 00:38:44 75° 258° (WSW) 00:43:33 437.505
ITUPSAT 1 23 Dec 00:35:30 00:40:19 81° 257° (WSW) 00:45:08 437.325
O/OREOS (USA 219) 23 Dec 00:47:19 00:50:34 20° 300° (WNW) 00:53:51 437.305
PHONESAT 2.4 23 Dec 00:48:09 00:50:59 22° 146° (SE) 00:53:49 2401.200-2431.200
M-CUBED/EXP-1 PRIME 23 Dec 00:50:32 00:55:22 87° 72° (ENE) 01:00:19 437.505
BEESAT 23 Dec 00:58:42 01:03:15 44° 261° (W) 01:07:50 436.000
Oscar 19 23 Dec 01:00:19 01:05:27 56° 101° (E) 01:10:32 437.125/150
YUBILEINY 23 Dec 01:05:21 01:11:46 22° 292° (WNW) 01:18:12 435.215
STARS 23 Dec 01:10:34 01:14:23 30° 70° (ENE) 01:18:13 437.465
KKS-1 23 Dec 01:19:26 01:23:47 59° 74° (ENE) 01:28:09 437.445
ITAMSAT 1 23 Dec 01:22:19 01:26:55 32° 97° (E) 01:31:29 435.822/435.867
Gurwin Techsat 1B 23 Dec 01:33:09 01:37:29 25° 95° (E) 01:41:47 435.225
AIST 1 23 Dec 01:45:06 01:45:57 11° 71° (ENE) 01:46:48
VERMONT LUNAR 23 Dec 01:58:50 02:02:23 85° 340° (NNW) 02:05:55 437.305
AUBIESAT-1 23 Dec 01:59:15 02:02:49 21° 262° (W) 02:06:27 437.475
PHONESAT 2.4 23 Dec 02:25:45 02:29:23 85° 341° (NNW) 02:33:01 2401.200-2431.200
Oscar 19 23 Dec 02:41:07 02:44:16 17° 296° (WNW) 02:47:26 437.125/150
AO-7 23 Dec 02:41:54 02:48:05 22° 94° (E) 02:54:12 29.400- 29.500
HORYU 2 23 Dec 02:45:19 02:49:42 49° 100° (E) 02:54:04 437.375
STARS 23 Dec 02:47:35 02:50:51 21° 265° (W) 02:54:09 437.465
MOZHAYETS 4 23 Dec 02:49:40 02:52:37 17° 66° (ENE) 02:55:34
KKS-1 23 Dec 02:59:56 03:00:46 10° 269° (W) 03:01:35 437.445
ITAMSAT 1 23 Dec 03:01:56 03:06:15 27° 292° (WNW) 03:10:33 435.822/435.867
GONETS M04 23 Dec 03:10:10 03:14:12 14° 77° (ENE) 03:18:14
Gurwin Techsat 1B 23 Dec 03:12:40 03:17:28 35° 290° (WNW) 03:22:14 435.225
SO-50 23 Dec 03:17:44 03:18:34 10° 40° (NE) 03:19:24 436.795
AIST 1 23 Dec 03:19:47 03:23:57 53° 266° (W) 03:28:04
VERMONT LUNAR 23 Dec 03:37:31 03:40:54 42° 357° (N) 03:44:16 437.305
PHONESAT 2.4 23 Dec 04:04:49 04:08:18 43° 357° (N) 04:11:46 2401.200-2431.200
PRISM 23 Dec 04:09:35 04:12:14 16° 67° (ENE) 04:14:52 437.425
CUBESAT XI-V 23 Dec 04:22:19 04:23:42 11° 64° (ENE) 04:25:04 437.345
HORYU 2 23 Dec 04:23:28 04:25:55 15° 295° (WNW) 04:28:22 437.375
MOZHAYETS 4 23 Dec 04:25:02 04:29:27 44° 261° (W) 04:33:54
AO-7 23 Dec 04:33:06 04:41:25 71° 291° (WNW) 04:49:41 29.400- 29.500
Cubesat XI-IV 23 Dec 04:41:27 04:43:11 12° 91° (E) 04:44:54 437.490
SO-50 23 Dec 04:55:05 04:59:59 70° 59° (ENE) 05:04:52 436.795
JAS-2 23 Dec 04:59:46 05:05:16 83° 284° (WNW) 05:10:25 435.910
GONETS M04 23 Dec 05:00:44 05:09:35 84° 95° (E) 05:18:27
CUTE-I 23 Dec 05:11:41 05:15:58 24° 95° (E) 05:20:14 437.470
VERMONT LUNAR 23 Dec 05:16:00 05:19:30 61° 14° (NNE) 05:22:59 437.305
STRAND 1 23 Dec 05:36:27 05:41:30 64° 74° (ENE) 05:46:33 437.568
